User: anonymous   Login
Location: Unspecified
(0.0000°N, 0.0000°E)
Time: 10:15:12
(UTC+00:00)
Language:

DOVE 2 - Orbit

View from above orbital plane
View from above orbital plane
View from above satellite
View from above satellite

Ground track
Ground track

The orbit data is extracted from the following two-line orbital elements,

1 39132U 13015C   19082.12407751  .00000313  00000-0  32446-4 0  9995
2 39132  64.8769  32.9189 0010784 326.0316 127.3501 15.07231007325525
Epoch (UTC): 23 March 2019 02:58:40
Eccentricity: 0.0010784
inclination: 64.8769°
perigee height: 537 km
apogee height: 552 km
right ascension of ascending node: 32.9189°
argument of perigee: 326.0316°
revolutions per day: 15.07231007
mean anomaly at epoch: 127.3501°
orbit number at epoch: 32552

The dashed part of the orbit path shows where the satellite is in the earth's shadow,  

DLR